Weather Roundup
Issued by NWS Chicago, IL

Home | Current Version | Previous Version | Text Only | Print | Product List | Glossary Off
Versions: 1 2 3 4 5 6 7 8 9 10 11 12 13 14 15 16 17 18 19 20 21 22 23 24 25 26 27 28 29 30 31 32 33 34 35 36 37 38 39 40 41 42 43 44 45 46 47 48 49 50

976
NZUS59 KLOT 082308
HRRLOT

CHICAGO AREA WEATHER ROUNDUP
NATIONAL WEATHER SERVICE CHICAGO/ROMEOVILLE IL
500 PM CST MON FEB 08 2016

NOTE: "FAIR" INDICATES FEW OR NO CLOUDS BELOW 12,000 FEET WITH NO
SIGNIFICANT WEATHER AND/OR OBSTRUCTIONS TO VISIBILITY.

* THESE STATIONS ARE NOT UNDER NWS QUALITY CONTROL. THEY ALSO MAY NOT
  REPORT WEATHER SUCH AS PRECIPITATION OR FOG.

ILZ005-006-012>014-019>023-090000-
NORTHEAST ILLINOIS

CITY           SKY/WX    TMP DP  RH WIND       PRES   REMARKS
OHARE          CLOUDY    27  19  72 W14       29.72R WCI  16
MIDWAY         CLOUDY    29  19  66 NW12      29.73R WCI  19
AURORA         CLOUDY    27  19  72 W18       29.75R WCI  14
LANSING*       CLOUDY    28  22  79 W9        29.73R WCI  19
WAUKEGAN       CLOUDY    26  20  77 NW12      29.70R WCI  16
DUPAGE AIRPORT CLOUDY    26  18  71 NW14      29.73R WCI  14
WHEELING       CLOUDY    27  20  75 NW14      29.73R WCI  16
KANKAKEE*      CLOUDY    26  19  74 W15       29.77R WCI  13
MORRIS*        CLOUDY    26  19  75 W17       29.75R WCI  13
LEWIS AIRPORT* CLOUDY    26  20  76 NW14      29.74R WCI  15
$$

WIZ051-052-058>065-066-070>072-090000-
SOUTHEAST WISCONSIN

CITY           SKY/WX    TMP DP  RH WIND       PRES   REMARKS
MILWAUKEE      LGT SNOW  25  21  85 W10       29.70R WCI  15
KENOSHA*       CLOUDY    26  19  74 NW15      29.70R WCI  14
RACINE*        MIX PCPN  27  19  72 NW15      29.71R WCI  15
BURLINGTON     CLOUDY    24  17  77 NW15      29.72R WCI  11
WAUKESHA       CLOUDY    23  18  80 W16       29.71R WCI  10
$$

INZ001>003-010>013-019-020-090000-
NORTHWEST INDIANA

CITY           SKY/WX    TMP DP  RH WIND       PRES   REMARKS
GARY*          CLOUDY    30  21  69 W12       29.73R WCI  21
MICHIGAN CITY* NOT AVBL
RENSSELAER*    NOT AVBL
VALPARAISO     CLOUDY    29  22  75 W12       29.71R WCI  19
$$

LMZ740>746-090000-
SOUTHERN LAKE MICHIGAN

STATION/POSITION TIME  SKY/WX   TEMP WIND        PRES    VSBY
                                AIR  DIR/SP/G
                 (UTC)          (F)  (DEG/KT/KT) (MB)    (MI)
HARRISON CRIB    2200            29  290/ 14/ 16   N/A
BURNHAM HARBOR   2300            28  280/ 11/ 13   N/A
CALUMET HARBOR   2200            28  250/  5/ 10 1005.6R
BURNS HARBOR     2200            29  290/ 12/ 17 1006.4R
MICHIGAN CITY    2200            29  250/ 17/ 18   N/A
$$

ABBREVIATIONS USED IN REMARKS
   TC - TEMPERATURE IN CELSIUS
  WCI - WIND CHILL INDEX
   HX - HEAT INDEX
  VSB - VISIBILITY
$$




USA.gov is the U.S. government's official web portal to all federal, state and local government web resources and services.